Latest Weather Observations for Tasman Island

IDT60801

Issued at 7:33 pm EDT Sunday 1 February 2015 (issued every 30 minutes, with the page automatically refreshed every 10 minutes)

About weather observations | Map of weather stations | Latest weather observations for TAS | Other Formats
Station Details ID: 094155 Name: TASMAN ISLAND Lat: -43.24 Lon: 148.00 Height: 240.0 m
Data from the previous 72 hours. | See also: Recent months at Tasman Island
Date/Time
EDT
Temp
°C
App
Temp
°C
Dew
Point
Rel
Hum
%
Delta-T
°C
Wind Press
QNH
hPa
Press
MSL
hPa
Rain
since 9 am
mm
Dir
 
Spd
km/h
Gust
km/h
Spd
kts
Gust
kts
01/07:30pm 11.2 4.3 6.3 72 2.3 SSW 32 48 17 26 1016.4 1016.1 0.2
01/07:00pm 11.2 4.4 7.1 76 2.0 SSW 32 44 17 24 1016.1 1015.8 0.2
01/06:30pm 11.2 4.4 7.1 76 2.0 SSW 32 48 17 26 1015.8 1015.5 0.2
01/06:00pm 11.0 4.9 8.4 84 1.3 SSW 30 46 16 25 1015.7 1015.4 0.2
01/05:30pm 11.2 5.4 8.1 81 1.5 SSW 28 44 15 24 1015.7 1015.4 0.2
01/05:00pm 11.4 5.2 7.7 78 1.8 SSW 30 39 16 21 1015.6 1015.3 0.2
01/04:30pm 11.3 5.0 7.6 78 1.8 SSW 30 44 16 24 1015.4 1015.1 0.2
01/04:00pm 10.8 3.9 8.7 87 1.0 SSW 35 48 19 26 1015.3 1015.0 0.2
01/03:30pm 11.3 4.8 8.9 85 1.2 SSW 33 48 18 26 1015.2 1014.9 0.2
01/03:00pm 11.5 4.9 8.4 81 1.5 SSW 33 44 18 24 1015.1 1014.8 0.2
01/02:30pm 11.6 5.0 8.6 82 1.5 SSW 33 46 18 25 1015.0 1014.7 0.2
01/02:00pm 11.3 3.9 8.2 81 1.5 SSW 37 52 20 28 1014.7 1014.4 0.2
01/01:45pm 11.1 4.7 8.7 85 1.2 SSW 32 50 17 27 1014.8 1014.5 0.2
01/01:30pm 11.3 5.1 9.4 88 1.0 SSW 32 44 17 24 1014.8 1014.5 0.2
01/01:01pm 11.3 5.7 8.7 84 1.3 SSW 28 46 15 25 1014.8 1014.5 0.2
01/01:00pm 11.2 5.2 8.6 84 1.3 SSW 30 46 16 25 1014.8 1014.5 0.2
01/12:30pm 11.2 4.9 9.1 87 1.1 SSW 32 43 17 23 1014.7 1014.4 0.2
01/12:00pm 10.9 4.5 9.5 91 0.7 SSW 33 48 18 26 1014.8 1014.5 0.2
01/11:30am 10.6 5.2 9.4 92 0.6 SSW 28 44 15 24 1014.7 1014.4 0.2
01/11:00am 10.3 3.6 9.7 96 0.3 SSW 35 46 19 25 1014.5 1014.2 0.2
01/10:30am 10.9 4.6 9.0 88 1.0 SSW 32 43 17 23 1014.2 1014.0 0.0
01/10:00am 10.7 4.7 8.8 88 0.9 SSW 30 44 16 24 1014.0 1013.8 0.0
01/09:51am 10.7 4.9 9.3 91 0.7 SSW 30 50 16 27 1014.0 1013.8 0.0
01/09:30am 10.4 5.0 9.5 94 0.5 SSW 28 43 15 23 1013.8 1013.6 0.0
01/09:00am 10.5 3.6 8.9 90 0.8 SSW 35 44 19 24 1013.6 1013.4 3.8
01/08:36am 10.6 4.9 8.2 85 1.2 SSW 28 48 15 26 1013.3 1013.0 3.8
01/08:30am 10.9 5.5 7.8 81 1.5 SSW 26 43 14 23 1013.3 1013.0 3.8
01/08:13am 10.9 4.1 6.8 76 2.0 SSW 32 52 17 28 1013.0 1012.7 3.8
01/08:00am 10.8 3.9 7.1 78 1.8 SSW 33 46 18 25 1012.9 1012.6 3.8
01/07:46am 10.9 5.0 7.6 80 1.6 SSW 28 50 15 27 1012.7 1012.4 3.8
01/07:30am 10.9 3.7 7.6 80 1.6 SSW 35 50 19 27 1012.5 1012.2 3.8
01/07:00am 11.0 4.3 7.3 78 1.8 SSW 32 43 17 23 1012.3 1012.0 3.8
01/06:30am 10.9 4.2 8.0 82 1.4 SSW 33 44 18 24 1011.9 1011.6 3.8
01/06:00am 10.9 4.7 8.0 82 1.4 SSW 30 48 16 26 1011.8 1011.5 3.8
01/05:32am 10.9 4.0 8.7 86 1.1 SSW 35 54 19 29 1011.6 1011.3 3.8
01/05:30am 10.9 3.6 8.7 86 1.1 SSW 37 54 20 29 1011.6 1011.3 3.8
01/05:00am 10.5 3.7 9.1 91 0.7 SSW 35 48 19 26 1011.6 1011.3 3.8
01/04:41am 10.8 4.5 8.9 88 1.0 SSW 32 50 17 27 1011.5 1011.2 3.8
01/04:30am 10.7 3.6 9.5 92 0.6 SSW 37 56 20 30 1011.5 1011.2 3.8
01/04:00am 11.2 4.1 8.2 82 1.5 SSW 35 52 19 28 1011.4 1011.1 3.8
01/03:30am 11.0 4.4 8.4 84 1.3 SSW 33 56 18 30 1011.5 1011.2 3.8
01/03:21am 10.9 4.5 8.5 85 1.2 SSW 32 56 17 30 1011.5 1011.2 3.8
01/03:00am 11.1 4.0 8.0 81 1.5 SSW 35 48 19 26 1011.5 1011.2 3.8
01/02:30am 11.0 4.3 8.1 82 1.4 SSW 33 48 18 26 1011.5 1011.2 3.8
01/02:00am 11.1 4.7 8.7 85 1.2 SSW 32 44 17 24 1011.8 1011.5 3.8
01/01:30am 10.8 3.8 8.4 85 1.2 SSW 35 46 19 25 1011.8 1011.5 3.8
01/01:06am 11.1 4.8 9.0 87 1.1 SSW 32 50 17 27 1012.0 1011.7 3.8
01/01:00am 11.1 4.7 9.5 90 0.8 SSW 33 50 18 27 1012.0 1011.7 3.8
01/12:30am 11.0 4.9 9.8 92 0.6 SSW 32 50 17 27 1012.0 1011.7 3.8
01/12:00am 11.0 4.3 9.8 92 0.6 SSW 35 50 19 27 1012.1 1011.8 3.8
 
Date/Time
EDT
Temp
°C
App
Temp
°C
Dew
Point
Rel
Hum
%
Delta-T
°C
Wind Press
QNH
hPa
Press
MSL
hPa
Rain
since 9 am
mm
Dir
 
Spd
km/h
Gust
km/h
Spd
kts
Gust
kts
31/11:30pm 11.0 4.9 10.5 97 0.3 SSW 33 50 18 27 1012.1 1011.8 3.8
31/11:00pm 11.3 6.3 10.8 97 0.3 SSW 28 43 15 23 1012.3 1012.0 3.8
31/10:30pm 11.3 5.4 10.5 95 0.4 SSW 32 43 17 23 1012.3 1012.0 3.8
31/10:00pm 11.5 5.8 11.2 98 0.2 SSW 32 44 17 24 1012.3 1012.0 3.8
31/09:30pm 11.5 6.2 11.3 99 0.1 SSW 30 43 16 23 1012.0 1011.7 3.8
31/09:00pm 11.4 6.5 11.2 99 0.1 SSW 28 43 15 23 1011.8 1011.5 3.8
31/08:30pm 11.4 5.7 11.2 99 0.1 SSW 32 44 17 24 1011.5 1011.2 3.8
31/08:00pm 11.5 5.8 11.3 99 0.1 SSW 32 46 17 25 1011.4 1011.1 3.8
31/07:30pm 11.2 5.5 11.0 99 0.1 SSW 32 50 17 27 1011.2 1010.9 3.8
31/07:00pm 11.3 5.4 11.3 100 0.0 SSW 33 46 18 25 1011.1 1010.8 3.8
31/06:30pm 11.5 6.3 11.5 100 0.0 SSW 30 48 16 26 1011.0 1010.7 3.6
31/06:01pm 11.6 6.4 11.6 100 0.0 SSW 30 48 16 26 1010.8 1010.5 3.4
31/06:00pm 11.6 6.0 11.6 100 0.0 SSW 32 48 17 26 1010.8 1010.5 3.4
31/05:30pm 11.7 6.2 11.7 100 0.0 SSW 32 44 17 24 1010.6 1010.3 3.4
31/05:00pm 11.7 7.3 11.7 100 0.0 SSW 26 39 14 21 1010.7 1010.4 3.0
31/04:30pm 11.7 7.3 11.7 100 0.0 S 26 44 14 24 1010.5 1010.2 2.8
31/04:07pm 11.8 6.7 11.8 100 0.0 SSW 30 48 16 26 1010.5 1010.2 2.6
31/04:00pm 11.5 5.9 11.5 100 0.0 SSW 32 48 17 26 1010.5 1010.2 2.6
31/03:59pm 11.5 6.3 11.5 100 0.0 SSW 30 48 16 26 1010.4 1010.1 2.6
31/03:30pm 11.7 7.3 11.7 100 0.0 SSW 26 44 14 24 1010.4 1010.1 2.6
31/03:00pm 11.6 7.2 11.6 100 0.0 SSW 26 41 14 22 1010.4 1010.1 2.2
31/02:30pm 11.6 7.2 11.6 100 0.0 SSW 26 39 14 21 1010.4 1010.1 2.2
31/02:00pm 11.6 7.2 11.6 100 0.0 S 26 48 14 26 1010.5 1010.2 2.0
31/01:30pm 11.7 7.3 11.7 100 0.0 S 26 43 14 23 1010.6 1010.3 1.4
31/01:15pm 11.6 6.8 11.6 100 0.0 S 28 46 15 25 1010.7 1010.4 1.2
31/01:00pm 11.7 7.3 11.7 100 0.0 S 26 43 14 23 1010.7 1010.4 1.0
31/12:30pm 11.8 7.0 11.8 100 0.0 S 28 48 15 26 1010.7 1010.4 0.6
31/12:22pm 11.6 6.8 11.6 100 0.0 S 28 48 15 26 1010.7 1010.4 0.6
31/12:00pm 11.8 7.4 11.8 100 0.0 S 26 44 14 24 1010.9 1010.6 0.4
31/11:30am 11.7 7.3 11.7 100 0.0 S 26 41 14 22 1010.9 1010.6 0.2
31/11:00am 11.9 7.9 11.9 100 0.0 S 24 39 13 21 1011.0 1010.7 0.2
31/10:30am 11.8 7.0 11.8 100 0.0 S 28 46 15 25 1010.9 1010.6 0.2
31/10:07am 11.8 7.0 11.8 100 0.0 S 28 46 15 25 1011.0 1010.7 0.2
31/10:00am 11.7 7.3 11.7 100 0.0 S 26 50 14 27 1011.1 1010.8 0.0
31/09:36am 11.7 6.5 11.7 100 0.0 S 30 50 16 27 1011.0 1010.7 0.0
31/09:30am 11.7 6.9 11.7 100 0.0 S 28 46 15 25 1011.0 1010.7 0.0
31/09:00am 11.7 7.3 11.7 100 0.0 SSW 26 44 14 24 1011.1 1010.8 2.8
31/08:37am 11.6 6.8 11.6 100 0.0 S 28 48 15 26 1011.0 1010.7 2.8
31/08:30am 11.7 6.9 11.7 100 0.0 SSW 28 44 15 24 1011.0 1010.7 2.8
31/08:06am 11.8 7.0 11.8 100 0.0 S 28 48 15 26 1011.0 1010.7 2.8
31/08:00am 11.8 6.7 11.8 100 0.0 S 30 48 16 26 1011.0 1010.7 2.8
31/07:33am 11.9 6.8 11.9 100 0.0 S 30 48 16 26 1010.9 1010.6 2.8
31/07:30am 11.7 6.5 11.7 100 0.0 S 30 48 16 26 1010.8 1010.5 2.8
31/07:08am 11.7 6.9 11.7 100 0.0 S 28 46 15 25 1010.8 1010.5 2.8
31/07:00am 11.8 7.0 11.8 100 0.0 S 28 43 15 23 1010.8 1010.5 2.8
31/06:42am 11.7 6.9 11.7 100 0.0 S 28 48 15 26 1010.8 1010.5 2.8
31/06:30am 11.7 7.3 11.7 100 0.0 S 26 43 14 23 1010.8 1010.5 2.8
31/06:13am 11.8 7.0 11.8 100 0.0 S 28 48 15 26 1010.7 1010.4 2.6
31/06:00am 11.8 6.7 11.8 100 0.0 S 30 46 16 25 1010.7 1010.4 2.6
31/05:30am 11.8 7.0 11.8 100 0.0 S 28 44 15 24 1010.5 1010.2 2.2
31/05:00am 11.7 6.5 11.7 100 0.0 S 30 48 16 26 1010.5 1010.2 1.8
31/04:36am 11.7 6.5 11.7 100 0.0 S 30 48 16 26 1010.6 1010.3 1.8
31/04:30am 11.6 6.8 11.6 100 0.0 S 28 46 15 25 1010.7 1010.4 1.8
31/04:00am 11.7 6.9 11.7 100 0.0 S 28 46 15 25 1010.9 1010.6 1.6
31/03:30am 11.8 6.7 11.8 100 0.0 S 30 50 16 27 1011.2 1010.9 1.4
31/03:00am 11.7 6.9 11.7 100 0.0 S 28 52 15 28 1011.5 1011.2 1.2
31/02:32am 11.6 6.8 11.6 100 0.0 S 28 48 15 26 1011.5 1011.2 1.0
31/02:30am 11.7 6.9 11.7 100 0.0 S 28 46 15 25 1011.6 1011.3 1.0
31/02:00am 11.7 6.9 11.7 100 0.0 S 28 44 15 24 1011.9 1011.6 1.0
31/01:36am 11.6 6.8 11.6 100 0.0 S 28 46 15 25 1012.1 1011.8 1.0
31/01:30am 11.8 7.4 11.8 100 0.0 S 26 43 14 23 1012.2 1011.9 1.0
31/01:00am 11.6 6.8 11.6 100 0.0 S 28 43 15 23 1012.4 1012.1 0.8
31/12:30am 11.4 6.9 11.4 100 0.0 S 26 44 14 24 1012.6 1012.3 0.8
31/12:00am 11.3 6.4 11.3 100 0.0 S 28 44 15 24 1012.8 1012.5 0.6
 
Date/Time
EDT
Temp
°C
App
Temp
°C
Dew
Point
Rel
Hum
%
Delta-T
°C
Wind Press
QNH
hPa
Press
MSL
hPa
Rain
since 9 am
mm
Dir
 
Spd
km/h
Gust
km/h
Spd
kts
Gust
kts
30/11:30pm 11.3 6.8 11.3 100 0.0 S 26 43 14 23 1013.1 1012.8 0.4
30/11:08pm 11.6 6.8 11.6 100 0.0 S 28 46 15 25 1013.4 1013.1 0.2
30/11:00pm 11.5 7.0 11.5 100 0.0 S 26 43 14 23 1013.5 1013.3 0.2
30/10:30pm 11.5 6.6 11.3 99 0.1 S 28 43 15 23 1013.8 1013.6 0.0
30/10:00pm 11.7 6.4 11.4 98 0.2 S 30 54 16 29 1014.2 1014.0 0.0
30/09:30pm 11.6 6.6 11.1 97 0.3 S 28 48 15 26 1014.3 1014.1 0.0
30/09:00pm 11.3 6.3 11.1 99 0.1 S 28 48 15 26 1014.3 1014.1 0.0
30/08:30pm 11.3 6.3 11.0 98 0.2 S 28 50 15 27 1014.5 1014.2 0.0
30/08:03pm 11.6 6.4 10.2 91 0.7 S 28 48 15 26 1014.5 1014.2 0.0
30/08:00pm 11.8 6.6 10.2 90 0.8 S 28 44 15 24 1014.5 1014.2 0.0
30/07:50pm 11.5 6.2 9.9 90 0.8 S 28 46 15 25 1014.6 1014.3 0.0
30/07:30pm 11.6 6.8 10.3 92 0.7 S 26 44 14 24 1014.6 1014.3 0.0
30/07:04pm 11.6 6.4 10.3 92 0.7 S 28 46 15 25 1014.6 1014.3 0.0
30/07:00pm 11.8 7.0 10.4 91 0.7 S 26 41 14 22 1014.7 1014.4 0.0
30/06:30pm 11.4 6.7 10.6 95 0.4 S 26 44 14 24 1014.8 1014.5 0.0
30/06:00pm 12.0 7.0 9.7 86 1.2 S 26 46 14 25 1015.0 1014.7 0.0
30/05:30pm 11.8 6.8 9.4 85 1.2 S 26 41 14 22 1015.3 1015.0 0.0
30/05:00pm 12.0 7.4 9.7 86 1.2 S 24 39 13 21 1015.6 1015.3 0.0
30/04:35pm 11.9 6.7 10.3 90 0.8 S 28 48 15 26 1015.8 1015.5 0.0
30/04:30pm 11.8 6.5 9.9 88 1.0 SSE 28 46 15 25 1015.9 1015.6 0.0
30/04:07pm 11.9 6.6 10.0 88 1.0 S 28 52 15 28 1016.0 1015.7 0.0
30/04:00pm 12.1 7.0 9.1 82 1.5 SSE 26 52 14 28 1015.9 1015.6 0.0
30/03:37pm 12.7 7.4 9.7 82 1.5 SSE 28 50 15 27 1016.1 1015.8 0.0
30/03:30pm 13.1 8.5 9.5 79 1.9 SSE 24 48 13 26 1016.2 1015.9 0.0
30/03:08pm 13.2 7.9 9.8 80 1.8 SSE 28 46 15 25 1016.4 1016.1 0.0
30/03:00pm 13.1 8.5 9.7 80 1.8 SSE 24 43 13 23 1016.6 1016.3 0.0
30/02:30pm 13.0 8.4 9.6 80 1.8 SSE 24 43 13 23 1016.8 1016.5 0.0
30/02:00pm 12.5 6.2 9.1 80 1.7 SSE 32 52 17 28 1016.9 1016.6 0.0
30/01:38pm 12.4 7.0 9.6 83 1.4 SSE 28 50 15 27 1016.9 1016.6 0.0
30/01:30pm 12.5 7.6 10.0 85 1.3 SSE 26 50 14 27 1017.0 1016.7 0.0
30/01:01pm 11.9 5.9 10.1 89 0.9 SSE 32 50 17 27 1017.3 1017.1 0.0
30/01:00pm 11.8 5.6 10.0 89 0.9 SSE 33 50 18 27 1017.3 1017.1 0.0
30/12:30pm 12.5 6.8 8.4 76 2.1 SSE 28 50 15 27 1017.4 1017.2 0.0
30/12:02pm 12.5 6.2 9.1 80 1.7 SSE 32 50 17 27 1017.8 1017.6 0.0
30/12:00pm 12.4 6.0 9.2 81 1.6 SSE 33 50 18 27 1017.8 1017.6 0.0
30/11:30am 11.5 4.8 9.8 89 0.9 SSE 35 57 19 31 1017.9 1017.7 0.0
30/11:00am 12.3 6.4 9.1 81 1.6 SSE 30 56 16 30 1018.3 1018.1 0.0
30/10:30am 12.3 5.8 8.8 79 1.8 SSE 33 59 18 32 1018.6 1018.4 0.0
30/10:01am 12.7 5.3 9.7 82 1.5 SSE 39 57 21 31 1018.9 1018.6 0.0
30/10:00am 12.9 5.1 9.9 82 1.6 SSE 41 57 22 31 1019.0 1018.7 0.0
30/09:31am 11.9 5.2 9.6 86 1.2 SSE 35 54 19 29 1019.0 1018.7 0.0
30/09:30am 11.9 5.2 9.8 87 1.1 SSE 35 52 19 28 1019.0 1018.7 0.0
30/09:00am 11.4 5.6 9.3 87 1.1 SSE 30 54 16 29 1019.1 1018.8 0.2
30/08:30am 11.4 4.5 8.8 84 1.3 SSE 35 54 19 29 1019.2 1018.9 0.2
30/08:00am 10.9 4.3 10.0 94 0.5 SSE 35 57 19 31 1019.1 1018.8 0.2
30/07:58am 10.8 3.7 9.6 92 0.6 SSE 37 57 20 31 1019.1 1018.8 0.2
30/07:30am 11.2 2.5 8.6 84 1.3 SSE 44 59 24 32 1018.7 1018.5 0.2
30/07:00am 10.5 4.0 10.3 99 0.1 SSE 35 57 19 31 1019.0 1018.7 0.2
30/06:30am 10.8 5.6 10.2 96 0.3 SSE 28 48 15 26 1019.1 1018.8 0.2
30/06:00am 11.1 4.8 9.0 87 1.1 SSE 32 50 17 27 1019.2 1018.9 0.2
30/05:31am 10.7 4.4 9.1 90 0.8 SSE 32 52 17 28 1019.3 1019.0 0.2
30/05:30am 10.9 4.7 9.3 90 0.8 SSE 32 50 17 27 1019.3 1019.0 0.2
30/05:02am 10.9 5.4 9.2 89 0.9 SSE 28 50 15 27 1019.3 1019.0 0.2
30/05:00am 10.8 5.2 8.9 88 1.0 SSE 28 44 15 24 1019.4 1019.1 0.2
30/04:52am 10.7 4.0 9.8 94 0.5 SSE 35 54 19 29 1019.4 1019.1 0.2
30/04:30am 10.4 3.7 9.8 96 0.3 SSE 35 52 19 28 1019.5 1019.2 0.2
30/04:09am 10.7 4.9 9.3 91 0.7 SSE 30 50 16 27 1019.7 1019.4 0.2
30/04:00am 10.8 3.8 8.6 86 1.1 SSE 35 52 19 28 1019.7 1019.4 0.2
30/03:33am 11.1 4.6 8.8 86 1.2 SSE 33 54 18 29 1019.9 1019.6 0.2
30/03:30am 11.0 4.4 8.6 85 1.2 SSE 33 50 18 27 1020.0 1019.7 0.2
30/03:00am 10.8 3.9 8.7 87 1.0 SSE 35 54 19 29 1020.3 1020.0 0.2
30/02:43am 10.8 4.4 8.7 87 1.0 SSE 32 56 17 30 1020.6 1020.3 0.2
30/02:30am 11.0 4.7 8.9 87 1.1 SSE 32 46 17 25 1020.7 1020.5 0.2
30/02:04am 10.9 4.3 7.6 80 1.6 SSE 32 50 17 27 1020.7 1020.5 0.2
30/02:00am 11.0 3.8 7.7 80 1.6 SSE 35 50 19 27 1020.9 1020.7 0.2
30/01:35am 11.0 5.0 7.1 77 1.9 SSE 28 46 15 25 1021.2 1021.0 0.2
30/01:30am 11.1 5.8 6.8 75 2.1 SSE 24 46 13 25 1021.2 1021.0 0.2
30/01:07am 11.2 5.2 6.9 75 2.1 SSE 28 50 15 27 1021.4 1021.2 0.2
30/01:00am 11.1 5.3 6.3 72 2.3 SSE 26 54 14 29 1021.4 1021.2 0.2
30/12:30am 11.0 3.9 5.5 69 2.6 SSE 32 50 17 27 1022.0 1021.8 0.2
30/12:00am 10.8 3.0 6.7 76 2.0 SSE 37 56 20 30 1022.2 1022.0 0.2
 
Date/Time
EDT
Temp
°C
App
Temp
°C
Dew
Point
Rel
Hum
%
Delta-T
°C
Wind Press
QNH
hPa
Press
MSL
hPa
Rain
since 9 am
mm
Dir
 
Spd
km/h
Gust
km/h
Spd
kts
Gust
kts
29/11:37pm 11.0 3.7 7.1 77 1.9 SSE 35 56 19 30 1022.3 1022.1 0.2
29/11:30pm 10.9 3.9 7.0 77 1.9 SSE 33 50 18 27 1022.3 1022.1 0.2
29/11:00pm 11.0 1.7 5.1 67 2.7 SSE 43 61 23 33 1022.5 1022.3 0.2
29/10:30pm 11.1 4.1 6.8 75 2.1 SSE 33 52 18 28 1022.7 1022.5 0.2
29/10:00pm 10.5 2.7 6.6 77 1.8 SSE 37 59 20 32 1022.8 1022.6 0.2
29/09:49pm 10.8 3.1 7.3 79 1.7 SSE 37 59 20 32 1022.7 1022.5 0.2
29/09:30pm 10.9 3.7 5.9 71 2.4 SSE 33 50 18 27 1022.9 1022.7 0.2
29/09:02pm 10.9 4.2 7.2 78 1.8 SSE 32 54 17 29 1022.8 1022.6 0.2
29/09:00pm 10.9 4.6 7.2 78 1.8 SSE 30 48 16 26 1022.9 1022.7 0.2
29/08:50pm 10.9 4.9 7.0 77 1.9 SSE 28 46 15 25 1023.0 1022.8 0.2
29/08:30pm 10.7 2.9 6.8 77 1.9 SSE 37 50 20 27 1022.9 1022.7 0.2
29/08:00pm 10.9 3.3 5.7 70 2.4 SSE 35 48 19 26 1023.3 1023.0 0.2

Other Formats:

Comma delimited format used in spreadsheet applications
http://www.bom.gov.au/fwo/IDT60801/IDT60801.95986.axf

JavaScript Object Notation format (JSON) in row-major order
http://www.bom.gov.au/fwo/IDT60801/IDT60801.95986.json